#timestamp,LO_Frequency,Hit,Temp,Hum 
1488020415.0,286046818.7,N,0.0,0.0
1488020415.9,286046818.7,N,0.0,0.0
1488020435.8,286046701.6,N,0.0,0.0
1488020455.6,286046694.1,N,0.0,0.0
1488020475.4,286046678.4,N,0.0,0.0
1488020495.2,286046699.3,N,0.0,0.0
1488020515.1,286046697.4,N,0.0,0.0
1488020516.0,286046697.4,N,0.0,0.0
1488020535.8,286046684.6,N,0.0,0.0
1488020555.6,286046692.0,N,0.0,0.0
1488020575.5,286046686.3,N,0.0,0.0
1488020595.3,286046683.3,N,0.0,0.0
1488020615.1,286046683.3,N,0.0,0.0
1488020635.9,286046680.8,N,0.0,0.0
1488020655.7,286046681.4,N,0.0,0.0
1488020675.5,286046678.7,N,0.0,0.0
1488020695.4,286046676.8,N,0.0,0.0
1488020715.2,286046675.9,N,0.0,0.0
1488020735.0,286046674.0,N,0.0,0.0
1488020735.9,286046674.0,N,0.0,0.0
1488020755.8,286046672.5,N,0.0,0.0
1488020775.6,286046671.0,N,0.0,0.0
1488020795.4,286046832.7,N,0.0,0.0
1488020815.3,286046828.7,N,0.0,0.0
1488020835.1,286046828.9,N,0.0,0.0
1488020855.7,286046829.9,N,0.0,0.0
1488020875.6,286046828.3,N,0.0,0.0
1488020895.4,286046822.6,N,0.0,0.0
1488020915.2,286046822.1,N,0.0,0.0
1488020935.1,286046821.4,N,0.0,0.0
1488020936.0,286046821.4,N,0.0,0.0
1488020955.8,286046819.0,N,0.0,0.0
1488020975.6,286046818.4,N,0.0,0.0
1488020995.5,286046814.3,N,0.0,0.0
1488021015.3,286046658.8,N,0.0,0.0
1488021035.1,286046813.5,N,0.0,0.0
1488021055.9,286046812.2,N,0.0,0.0
1488021075.7,286046807.9,N,0.0,0.0
1488021095.5,286046806.1,N,0.0,0.0
1488021115.4,286046807.4,N,0.0,0.0
1488021135.2,286046805.9,N,0.0,0.0
1488021155.0,286046804.1,N,0.0,0.0
1488021155.9,286046804.1,N,0.0,0.0
1488021175.8,286046801.7,N,0.0,0.0
1488021195.6,286046798.7,N,0.0,0.0
1488021215.4,286046718.7,N,0.0,0.0
1488021235.3,286046794.1,N,0.0,0.0
1488021255.1,286046773.7,N,0.0,0.0
1488021256.0,286046773.7,N,0.0,0.0
1488021275.8,286046772.1,N,0.0,0.0
1488021295.7,286046769.3,N,0.0,0.0
1488021315.5,286046770.4,N,0.0,0.0
1488021335.3,286046766.6,N,0.0,0.0
1488021355.2,286046765.3,N,0.0,0.0
1488021375.9,286046703.3,N,0.0,0.0
1488021395.7,286046761.7,N,0.0,0.0
1488021415.6,286046699.3,N,0.0,0.0
1488021435.4,286046758.5,N,0.0,0.0
1488021455.2,286046756.6,N,0.0,0.0
1488021475.0,286046754.1,N,0.0,0.0
1488021476.0,286046754.1,N,0.0,0.0
1488021495.8,286046753.2,N,0.0,0.0
1488021515.6,286046749.4,N,0.0,0.0
1488021535.4,286046747.5,N,0.0,0.0
1488021555.3,286046683.1,N,0.0,0.0
1488021575.1,286046681.3,N,0.0,0.0
1488021595.8,286046684.4,N,0.0,0.0
1488021615.7,286046679.7,N,0.0,0.0
1488021635.5,286046681.1,N,0.0,0.0
1488021655.3,286046681.2,N,0.0,0.0
1488021675.2,286046674.9,N,0.0,0.0
1488021695.9,286046672.6,N,0.0,0.0
1488021715.7,286046671.4,N,0.0,0.0
1488021735.6,286046667.8,N,0.0,0.0
1488021755.4,286046664.7,N,0.0,0.0
1488021775.2,286046659.5,N,0.0,0.0
1488021795.1,286046658.0,N,0.0,0.0
1488021796.0,286046658.0,N,0.0,0.0
1488021815.8,286046656.3,N,0.0,0.0
1488021835.6,286046654.9,N,0.0,0.0
1488021855.5,286046653.8,N,0.0,0.0
1488021875.3,286046649.3,N,0.0,0.0
1488021895.1,286046647.7,N,0.0,0.0
1488021915.9,286046646.2,N,0.0,0.0
1488021935.7,286046644.6,N,0.0,0.0
1488021955.5,286046645.6,N,0.0,0.0
1488021975.4,286046643.3,N,0.0,0.0
1488021995.2,286046641.3,N,0.0,0.0
1488022015.0,286046644.1,N,0.0,0.0
1488022015.9,286046644.1,N,0.0,0.0
1488022035.7,286046643.2,N,0.0,0.0
1488022055.6,286046642.4,N,0.0,0.0
1488022075.4,286046695.2,N,0.0,0.0
1488022095.2,286046693.5,N,0.0,0.0
1488022115.1,286046690.6,N,0.0,0.0
1488022116.0,286046690.6,N,0.0,0.0
1488022135.8,286046688.0,N,0.0,0.0
1488022155.6,286046689.1,N,0.0,0.0
1488022175.5,286046686.4,N,0.0,0.0
1488022195.3,286046686.6,N,0.0,0.0
1488022215.1,286046689.7,N,0.0,0.0
1488022235.9,286046702.6,N,0.0,0.0
1488022255.7,286046690.6,N,0.0,0.0
1488022275.5,286046688.5,N,0.0,0.0
1488022295.4,286046689.1,N,0.0,0.0
1488022315.2,286046686.2,N,0.0,0.0
1488022335.0,286046685.7,N,0.0,0.0
1488022335.9,286046685.7,N,0.0,0.0
1488022355.8,286046681.5,N,0.0,0.0
1488022375.6,286046684.0,N,0.0,0.0
1488022395.4,286046687.9,N,0.0,0.0
1488022415.3,286046689.6,N,0.0,0.0
1488022435.1,286046690.6,N,0.0,0.0
1488022436.0,286046690.6,N,0.0,0.0
1488022455.8,286046689.6,N,0.0,0.0
1488022475.7,286046690.0,N,0.0,0.0
1488022495.5,286046690.2,N,0.0,0.0
1488022515.3,286046687.8,N,0.0,0.0
1488022535.2,286046686.5,N,0.0,0.0
1488022555.9,286046685.1,N,0.0,0.0
1488022575.7,286046680.8,N,0.0,0.0
1488022595.6,286046672.8,N,0.0,0.0
1488022615.4,286046688.6,N,0.0,0.0
1488022635.2,286046689.2,N,0.0,0.0
1488022655.0,286046689.0,N,0.0,0.0
1488022656.0,286046689.0,Y,0.0,0.0
1488022675.8,286046884.7,N,0.0,0.0
1488022695.6,286046885.9,N,0.0,0.0
1488022715.5,286046885.3,N,0.0,0.0
1488022735.3,286046887.1,N,0.0,0.0
1488022755.1,286046883.6,N,0.0,0.0
1488022775.9,286046882.8,N,0.0,0.0
1488022795.7,286046889.6,N,0.0,0.0
1488022815.5,286046893.9,N,0.0,0.0
1488022835.3,286046876.9,N,0.0,0.0
1488022855.2,286046878.5,N,0.0,0.0
1488022875.0,286046879.0,N,0.0,0.0
1488022875.9,286046879.0,N,0.0,0.0
1488022895.7,286046878.1,N,0.0,0.0
1488022915.6,286046820.4,N,0.0,0.0
1488022935.4,286046882.8,N,0.0,0.0
1488022955.2,286046882.3,N,0.0,0.0
1488022975.1,286046884.3,N,0.0,0.0
1488022976.0,286046884.3,N,0.0,0.0
1488022995.8,286046883.6,N,0.0,0.0
1488023015.6,286046885.6,N,0.0,0.0
1488023035.5,286046885.5,N,0.0,0.0
1488023055.3,286046886.7,N,0.0,0.0
1488023075.1,286046888.5,N,0.0,0.0
1488023095.9,286046887.7,N,0.0,0.0
1488023115.7,286046891.8,N,0.0,0.0
1488023135.5,286046892.7,N,0.0,0.0
1488023155.4,286046895.0,N,0.0,0.0
1488023175.2,286046895.0,N,0.0,0.0
1488023195.0,286046892.9,N,0.0,0.0
1488023195.9,286046892.9,N,0.0,0.0
1488023215.8,286046893.2,N,0.0,0.0
1488023235.6,286046895.2,N,0.0,0.0
1488023255.4,286046893.4,N,0.0,0.0
1488023275.3,286046894.4,N,0.0,0.0
1488023295.1,286046906.4,N,0.0,0.0
1488023296.0,286046906.4,N,0.0,0.0
1488023315.8,286046894.2,N,0.0,0.0
1488023335.7,286046936.5,N,0.0,0.0
1488023355.5,286046898.4,N,0.0,0.0
1488023375.3,286046897.8,N,0.0,0.0
1488023395.2,286046895.7,N,0.0,0.0
1488023415.9,286046896.9,N,0.0,0.0
1488023435.7,286046894.3,N,0.0,0.0
1488023455.6,286046931.8,N,0.0,0.0
1488023475.4,286046931.2,N,0.0,0.0
1488023495.2,286046931.2,N,0.0,0.0
1488023515.0,286046937.9,N,0.0,0.0
1488023516.0,286046937.9,N,0.0,0.0
1488023535.8,286046940.6,N,0.0,0.0
1488023555.6,286046905.6,N,0.0,0.0
1488023575.4,286046914.7,N,0.0,0.0
1488023595.3,286046919.6,N,0.0,0.0
1488023615.2,286046921.9,N,0.0,0.0
1488023635.1,286046922.4,N,0.0,0.0
1488023636.0,286046922.4,N,0.0,0.0
1488023655.8,286046929.9,N,0.0,0.0
1488023675.6,286046954.0,N,0.0,0.0
1488023695.5,286046951.3,N,0.0,0.0
1488023715.3,286046947.5,N,0.0,0.0
1488023735.1,286046943.8,N,0.0,0.0
1488023755.9,286046946.8,N,0.0,0.0
1488023775.7,286046901.7,N,0.0,0.0
1488023795.5,286046896.8,N,0.0,0.0
1488023815.4,286046893.6,N,0.0,0.0
1488023835.2,286046899.9,N,0.0,0.0
1488023855.0,286046898.0,N,0.0,0.0
1488023855.9,286046898.0,N,0.0,0.0
1488023875.8,286046896.9,N,0.0,0.0
1488023895.6,286046896.8,N,0.0,0.0
1488023915.4,286046909.5,N,0.0,0.0
1488023935.3,286046911.6,N,0.0,0.0
1488023955.1,286046909.4,N,0.0,0.0
1488023956.0,286046909.4,N,0.0,0.0
1488023975.8,286046905.4,N,0.0,0.0
1488023995.7,286046903.5,N,0.0,0.0
